Simultaneous Nadir Overpasses (SNOs) Predictions

Prediction of SNOs between GOES-14 and NOAA-20 Satellite Orbit:

Table of predicted SNOs for the next 14.0 days since TLE Epoch: 2/8/2019
Index Date Time (GOES-14) GOES-14 Lat,Lon NOAA-20 Lat,Lon Distance(km) Time Diff (sec)
1 02/10/2019 08:24:07 0.02,-104.36 0.15,-105.05 77.73 80
2 02/11/2019 08:08:03 0.02,-104.38 -0.84,-100.51 439.96 80
3 02/12/2019 20:29:59 -0.02,-104.17 -0.40,-105.81 186.54 80
4 02/13/2019 20:08:36 -0.02,-104.18 0.65,-101.28 330.65 80
5 02/15/2019 08:30:25 0.03,-104.41 0.50,-106.56 244.61 80
6 02/16/2019 08:14:20 0.03,-104.42 -0.49,-102.02 272.73 80
7 02/17/2019 20:36:17 -0.04,-104.21 -0.74,-107.32 353.62 80
8 02/18/2019 20:14:53 -0.04,-104.22 0.31,-102.79 163.28 80
9 02/20/2019 08:36:42 0.04,-104.44 0.84,-108.07 412.78 80
10 02/21/2019 08:20:38 0.04,-104.46 -0.15,-103.53 104.78 80




NCC Satellite Simultaneous Nadir Overpasses (SNOs) Prediction Service
